[[{"header":{"parameterUnit":"m.s-1","parameterCategory":1,"la1":30.2991,"la2":30.254,"lo1":-89.0895,"lo2":-89.0444,"dy":0.0017,"dx":0.0017,"nx":28,"ny":28,"refTime":"2024-04-10T03:00:00:Z","depth":0,"parameterNumber":2,"parameterNumberName":"U-component_of_WINDS"},"data":[0,0,0,0,0,0,0,0,0,0,0,0,0,0,0,0,0,0,0,0,0,0,0,0,0,0,0,0,0,0,0,0,0,0,0,0,0,0,0,0,0,0,0,0,0,0,0,0,0,0,0,0,0,0,0,0,0,0,5.931,5.9313,0,5.9559,5.9562,5.9565,5.952,5.9516,5.9512,5.9507,5.9773,5.9784,5.9795,0,0,0,0,0,0,0,0,0,0,0,0,0,5.8805,5.8815,5.931,5.9313,5.9316,5.9558,5.9562,5.9565,5.9521,5.9516,5.951,5.9505,5.9769,5.9783,5.9796,0,0,0,0,0,0,0,0,0,0,0,0,0,5.9037,5.8818,5.9309,5.9323,5.9326,5.9558,5.9562,5.9566,5.9522,5.9516,5.9509,5.9503,5.9765,5.9781,5.9798,6.0034,0,0,5.9849,5.9857,0,0,0,0,0,0,0,0,5.9024,5.9055,5.9318,5.9322,5.9327,5.9501,5.9481,5.9724,5.9524,5.9448,5.9507,5.95,5.9689,5.9711,5.9773,6.0047,6.0058,5.9851,5.9861,5.9868,5.9873,0,0,0,0,0,0,0,5.9008,5.9044,5.9409,5.9322,5.9327,5.932,5.9345,5.9527,5.9603,5.9454,5.9452,5.9481,5.969,5.9757,5.9779,6.0062,5.985,5.9865,5.9876,5.9882,6.0543,6.055,0,0,0,0,0,0,5.8986,5.9031,5.9401,5.9416,5.9155,5.9334,5.9363,5.9452,5.9601,5.9617,5.9487,5.9478,5.9732,5.9759,5.9788,6.0075,5.9868,5.9884,5.9893,6.0536,6.0545,6.0553,0,0,0,0,0,0,5.8975,5.9019,5.9391,5.9223,5.927,5.935,5.9451,5.9461,5.9527,5.9625,5.9639,5.954,5.9727,5.9765,5.9973,6.0083,5.9891,5.9907,6.0527,6.0538,6.0549,6.065,0,0,0,0,0,0,5.8961,5.9016,5.9104,5.9225,5.9279,5.9569,5.9458,5.947,5.9555,5.9547,5.9679,5.9695,5.9725,5.9948,5.999,6.0103,5.992,6.0517,6.0532,6.0545,6.0637,6.0663,6.0685,0,0,0,0,0,5.8943,5.9125,5.9109,5.9154,5.939,5.9575,5.9606,5.9633,5.9564,5.9655,5.9718,5.9691,6.0064,5.997,6.0016,6.0136,6.051,6.0528,6.0544,6.0626,6.0658,6.0685,0,0,0,0,0,0,5.9019,5.9141,5.9125,5.935,5.9452,5.9567,5.9682,5.9666,5.9793,5.978,5.9812,5.9843,6.0054,6.0116,6.0008,6.0373,6.0278,6.0305,6.0325,6.0356,6.0379,6.036,5.9934,0,0,0,0,0,5.9061,5.9197,5.9298,5.9488,5.9539,5.9602,5.9684,5.9696,5.9804,5.9848,5.9926,6.0035,6.0176,6.027,6.0406,6.0645,6.0675,6.0751,6.0775,6.0795,6.0818,6.095,6.0985,6.0608,6.0608,6.0608,0,0,5.9151,5.9235,5.932,5.9505,5.9585,5.9729,5.9639,5.9795,5.9902,5.9873,6.0073,6.0134,6.0258,6.0483,6.0586,6.0542,6.0928,6.0816,6.0831,6.0844,6.0971,6.1006,6.1038,6.0619,6.0617,6.0616,0,0,5.9388,5.9465,5.9631,5.9712,5.9833,5.9874,5.9914,6.0031,6.0069,6.027,6.0251,6.0381,6.0625,6.0713,6.079,6.106,6.104,6.1104,6.1231,6.1359,6.1389,6.1415,6.1512,6.1546,6.1127,6.1127,6.1127,0,5.9486,5.9697,5.9719,5.9876,5.9959,5.9935,6.0105,6.0185,6.0346,6.0405,6.0352,6.0656,6.0738,6.0983,6.1048,6.1112,6.116,6.1089,6.1382,6.1409,6.1434,6.1527,6.1563,6.1134,6.1133,6.1132,6.1132,0,5.9812,5.9959,6.0079,6.0231,6.0328,6.0491,6.054,6.0636,6.064,6.0686,6.0892,6.0989,6.1144,6.1203,6.121,6.145,6.1418,6.1374,6.1279,6.1477,6.1564,6.16,6.1144,6.1141,6.1139,6.1138,0,0,6.0105,6.0264,6.0309,6.0377,6.0508,6.0625,6.0787,6.0935,6.1017,6.1129,6.1268,6.1473,6.1432,6.152,6.1537,6.1649,6.1857,6.1591,6.1594,6.1637,6.2128,6.2161,6.2201,6.1844,6.1851,6.1856,6.2117,0,6.0354,6.0637,6.0661,6.0917,6.1054,6.1033,6.1175,6.1273,6.1322,6.1447,6.1502,6.1647,6.1582,6.1634,6.1744,6.1808,6.1956,6.179,6.1976,6.1982,6.1945,6.2247,6.2283,6.2524,6.2152,6.2158,6.2162,0,6.0683,6.0801,6.1069,6.118,6.1239,6.1366,6.1503,6.1623,6.1734,6.1761,6.1858,6.1859,6.203,6.1928,6.2164,6.205,6.2128,6.2171,6.2181,6.22,6.2084,6.2274,6.2602,6.2638,6.2216,6.2212,6.2208,0,6.087,6.1096,6.1285,6.1345,6.148,6.1569,6.163,6.1734,6.1822,6.1943,6.2,6.2141,6.2219,6.2329,6.2369,6.2291,6.2604,6.2505,6.2633,6.2632,6.27,6.2696,6.3045,6.275,6.275,6.2749,6.2748,0,6.1147,6.1312,6.1371,6.1488,6.1673,6.17,6.1883,6.194,6.2033,6.2162,6.2155,6.2277,6.2322,6.2453,6.2486,6.2677,6.2712,6.2741,6.2748,6.2742,6.2738,6.2793,6.2778,6.2759,6.2757,6.2755,6.2753,0,6.1387,6.1433,6.1638,6.1747,6.1779,6.1911,6.2006,6.212,6.2165,6.233,6.237,6.2443,6.2596,6.2646,6.2834,6.2856,6.3078,6.307,6.3039,6.304,6.3165,6.3153,6.3563,6.3619,6.3287,6.329,6.3292,0,6.156,6.1686,6.1808,6.1892,6.1956,6.2092,6.218,6.2212,6.2305,6.244,6.2538,6.2689,6.2811,6.3058,6.313,6.3273,6.3268,6.3402,6.329,6.328,6.3271,6.3263,6.3276,6.3424,6.3427,6.343,6.3432,0,6.1864,6.1879,6.2004,6.2138,6.2241,6.2349,6.2453,6.2523,6.2571,6.2676,6.283,6.2925,6.3113,6.3264,6.3409,6.3475,6.3464,6.3467,6.3504,6.3499,6.3476,6.349,6.3097,6.3457,6.3455,6.3453,6.3452,6.3451,6.2077,6.2187,6.2289,6.2429,6.2509,6.2606,6.2718,6.2776,6.2904,6.3057,6.307,6.3237,6.3346,6.3538,6.3612,6.3745,6.3707,6.3761,6.3775,6.3788,6.3797,6.3454,6.3772,6.3771,6.377,6.377,6.3769,0,6.2379,6.2443,6.2571,6.2714,6.2825,6.2799,6.2913,6.3007,6.3153,6.3254,6.3373,6.3551,6.3696,6.3779,6.3925,6.4016,6.4014,6.4053,6.4047,6.4062,6.3823,6.3775,6.4052,6.4052,6.4052,6.4052,6.4052,6.4052,6.255,6.2735,6.2763,6.2989,6.3053,6.3214,6.3281,6.3371,6.3451,6.3648,6.3767,6.3818,6.3913,6.4065,6.4198,6.4219,6.4274,6.4317,6.4334,6.4108,6.4079,6.4052,6.4008,6.4328,6.4329,6.4563,6.4565,6.4566]},{"header":{"parameterUnit":"m.s-1","parameterCategory":1,"la1":30.2991,"la2":30.254,"lo1":-89.0895,"lo2":-89.0444,"dy":0.0017,"dx":0.0017,"nx":28,"ny":28,"refTime":"2024-04-10T03:00:00:Z","depth":0,"parameterNumber":3,"parameterNumberName":"V-component_of_WINDS"},"data":[0,0,0,0,0,0,0,0,0,0,0,0,0,0,0,0,0,0,0,0,0,0,0,0,0,0,0,0,0,0,0,0,0,0,0,0,0,0,0,0,0,0,0,0,0,0,0,0,0,0,0,0,0,0,0,0,0,0,1.6907,1.6907,0,1.6942,1.6943,1.6943,1.6924,1.6923,1.6922,1.6921,1.6957,1.6959,1.6961,0,0,0,0,0,0,0,0,0,0,0,0,0,1.682,1.6822,1.6907,1.6907,1.6907,1.6942,1.6943,1.6943,1.6924,1.6923,1.6921,1.692,1.6957,1.6959,1.6961,0,0,0,0,0,0,0,0,0,0,0,0,0,1.6857,1.6822,1.6907,1.6902,1.6902,1.6942,1.6943,1.6943,1.6924,1.6923,1.6921,1.692,1.6956,1.6959,1.6961,1.7008,0,0,1.697,1.6971,0,0,0,0,0,0,0,0,1.6855,1.686,1.6902,1.6902,1.6902,1.6927,1.6926,1.6965,1.6924,1.6916,1.6921,1.6919,1.6948,1.6952,1.6962,1.701,1.7011,1.697,1.6972,1.6973,1.6974,0,0,0,0,0,0,0,1.6852,1.6858,1.6921,1.6903,1.6903,1.6898,1.6901,1.6933,1.694,1.6916,1.6915,1.6919,1.6948,1.6959,1.6962,1.7012,1.697,1.6973,1.6975,1.6976,1.7098,1.71,0,0,0,0,0,0,1.685,1.6856,1.692,1.6922,1.6875,1.69,1.6904,1.6921,1.6939,1.6941,1.6921,1.6918,1.6955,1.6959,1.6964,1.7019,1.6973,1.6976,1.6978,1.7097,1.7099,1.71,0,0,0,0,0,0,1.6848,1.6856,1.6918,1.6889,1.6896,1.6903,1.6922,1.6922,1.6933,1.6943,1.6944,1.6931,1.6954,1.696,1.6997,1.702,1.6977,1.698,1.7095,1.7097,1.7099,1.713,0,0,0,0,0,0,1.6846,1.6855,1.6874,1.6889,1.6898,1.6951,1.6923,1.6924,1.6938,1.6935,1.6952,1.6954,1.6953,1.6993,1.7,1.7023,1.6982,1.7093,1.7096,1.7099,1.7127,1.7133,1.7138,0,0,0,0,0,1.6843,1.6881,1.6875,1.6883,1.6921,1.6953,1.6958,1.6956,1.694,1.6958,1.6964,1.6953,1.7016,1.6997,1.7004,1.7029,1.7091,1.7095,1.7098,1.7124,1.7131,1.7138,0,0,0,0,0,0,1.6869,1.6884,1.6877,1.6921,1.6936,1.6949,1.6973,1.6964,1.6984,1.6981,1.6978,1.6982,1.7021,1.7028,1.7007,1.7074,1.7051,1.7056,1.7068,1.7075,1.708,1.7078,1.6984,0,0,0,0,0,1.688,1.6905,1.6916,1.6954,1.6962,1.6966,1.698,1.6977,1.6992,1.6998,1.7007,1.7022,1.7045,1.706,1.7082,1.7127,1.713,1.7147,1.7153,1.7157,1.7162,1.7185,1.7193,1.7112,1.7112,1.7112,0,0,1.6903,1.6914,1.693,1.696,1.6971,1.6996,1.6971,1.6999,1.7018,1.7003,1.7038,1.7045,1.7061,1.7102,1.7121,1.711,1.7185,1.7162,1.7165,1.7168,1.719,1.7197,1.7204,1.7114,1.7114,1.7113,0,0,1.6958,1.6969,1.7001,1.7013,1.7029,1.7031,1.7039,1.7053,1.7057,1.7092,1.7081,1.7102,1.7142,1.7154,1.7165,1.7221,1.7212,1.7228,1.7258,1.728,1.7287,1.7292,1.7312,1.7319,1.7233,1.7233,1.7233,0,1.6985,1.7023,1.7019,1.7048,1.706,1.7047,1.7079,1.709,1.7113,1.7122,1.7109,1.7157,1.7167,1.721,1.7223,1.7233,1.7241,1.7227,1.7286,1.7292,1.7297,1.7315,1.7323,1.7235,1.7234,1.7234,1.7234,0,1.7054,1.708,1.7104,1.7126,1.7141,1.7172,1.7172,1.7188,1.7183,1.7186,1.7221,1.7232,1.7255,1.7265,1.7261,1.7307,1.7299,1.7286,1.7263,1.7306,1.7324,1.7331,1.7237,1.7237,1.7236,1.7236,0,0,1.7129,1.7146,1.7155,1.7164,1.718,1.72,1.7229,1.7251,1.7264,1.7279,1.7303,1.7336,1.7323,1.7335,1.7332,1.7352,1.7395,1.7336,1.7336,1.7346,1.7444,1.7454,1.7463,1.7388,1.7389,1.739,1.7443,0,1.7184,1.7235,1.7231,1.7279,1.7302,1.7288,1.7312,1.7325,1.7328,1.7347,1.735,1.7373,1.7355,1.7362,1.7381,1.7386,1.7414,1.7382,1.7409,1.7411,1.7406,1.7472,1.7483,1.7532,1.745,1.7451,1.7452,0,1.7257,1.7274,1.7323,1.7334,1.7343,1.7366,1.7385,1.7404,1.7416,1.7417,1.743,1.7423,1.7451,1.7426,1.7464,1.7442,1.7453,1.7456,1.7458,1.7461,1.7434,1.7476,1.7548,1.7555,1.7462,1.7462,1.7461,0,1.7306,1.7341,1.7375,1.7383,1.7396,1.7412,1.7418,1.7429,1.7442,1.7458,1.7466,1.7485,1.7496,1.7511,1.7508,1.7491,1.7547,1.7522,1.7547,1.7548,1.7561,1.756,1.7635,1.7567,1.7567,1.7567,1.7567,0,1.7369,1.7399,1.7396,1.7417,1.745,1.7445,1.7478,1.7483,1.7492,1.7513,1.7502,1.7521,1.7517,1.7537,1.7535,1.7566,1.7571,1.7572,1.7571,1.7573,1.7573,1.758,1.7577,1.7569,1.7569,1.7568,1.7568,0,1.743,1.7429,1.7465,1.7473,1.7476,1.75,1.7508,1.7527,1.7528,1.7554,1.756,1.7562,1.7583,1.7582,1.7608,1.7606,1.7644,1.7639,1.764,1.7639,1.7664,1.7662,1.7747,1.7757,1.7683,1.7684,1.7684,0,1.747,1.7493,1.7504,1.7516,1.7523,1.7545,1.7557,1.7552,1.7565,1.758,1.7597,1.7617,1.7634,1.7669,1.7672,1.7691,1.7687,1.7715,1.7689,1.769,1.7686,1.7685,1.7687,1.772,1.7721,1.7722,1.7722,0,1.7541,1.7539,1.7558,1.7575,1.759,1.7604,1.7616,1.7627,1.7623,1.7639,1.766,1.7673,1.7697,1.7718,1.7735,1.7741,1.7731,1.773,1.7737,1.7739,1.7738,1.7738,1.7654,1.7728,1.7728,1.7727,1.7727,1.7727,1.7593,1.7612,1.7622,1.7642,1.7651,1.7662,1.768,1.7682,1.77,1.772,1.7715,1.774,1.7749,1.7771,1.7779,1.7797,1.7787,1.7797,1.7799,1.7802,1.7805,1.7735,1.78,1.78,1.78,1.78,1.78,0,1.7664,1.7669,1.7687,1.7704,1.772,1.7708,1.772,1.7734,1.7755,1.7765,1.7781,1.7805,1.7824,1.7828,1.7846,1.786,1.7855,1.7864,1.7863,1.7865,1.7813,1.7805,1.7867,1.7867,1.7867,1.7867,1.7867,1.7867,1.7702,1.7733,1.7732,1.7767,1.7771,1.7795,1.7803,1.7812,1.782,1.7847,1.7863,1.7865,1.7872,1.789,1.7906,1.7907,1.7914,1.7925,1.7924,1.7875,1.7869,1.7862,1.7855,1.7926,1.7927,1.7974,1.7974,1.7975]}]]